[[{"header":{"parameterUnit":"m.s-1","parameterCategory":1,"la1":30.2991,"la2":30.254,"lo1":-89.0895,"lo2":-89.0444,"dy":0.0017,"dx":0.0017,"nx":28,"ny":28,"refTime":"2025-01-07T09:00:00:Z","depth":0,"parameterNumber":2,"parameterNumberName":"U-component_of_WINDS"},"data":[0,0,0,0,0,0,0,0,0,0,0,0,0,0,0,0,0,0,0,0,0,0,0,0,0,0,0,0,0,0,0,0,0,0,0,0,0,0,0,0,0,0,0,0,0,0,0,0,0,0,0,0,0,0,0,0,0,0,-0.1029,-0.103,0,-0.1091,-0.1091,-0.1092,-0.1073,-0.1071,-0.107,-0.1069,-0.1135,-0.1138,-0.1141,0,0,0,0,0,0,0,0,0,0,0,0,0,-0.0895,-0.0898,-0.1029,-0.103,-0.103,-0.1091,-0.1092,-0.1092,-0.1073,-0.1071,-0.107,-0.1068,-0.1134,-0.1138,-0.1141,0,0,0,0,0,0,0,0,0,0,0,0,0,-0.0955,-0.0899,-0.1029,-0.1028,-0.1028,-0.109,-0.1092,-0.1093,-0.1073,-0.1071,-0.1069,-0.1068,-0.1133,-0.1137,-0.1142,-0.1209,0,0,-0.1155,-0.1157,0,0,0,0,0,0,0,0,-0.0952,-0.096,-0.1027,-0.1028,-0.1029,-0.1072,-0.1069,-0.1132,-0.1074,-0.1056,-0.1069,-0.1067,-0.1116,-0.1122,-0.1138,-0.1212,-0.1215,-0.1156,-0.1159,-0.116,-0.1162,0,0,0,0,0,0,0,-0.0948,-0.0957,-0.1053,-0.1028,-0.1029,-0.1025,-0.1031,-0.1081,-0.1097,-0.1058,-0.1056,-0.1064,-0.1116,-0.1133,-0.1139,-0.1216,-0.1156,-0.116,-0.1162,-0.1164,-0.1349,-0.1351,0,0,0,0,0,0,-0.0943,-0.0954,-0.1051,-0.1055,-0.0984,-0.1029,-0.1036,-0.106,-0.1096,-0.1099,-0.1066,-0.1063,-0.1127,-0.1134,-0.1141,-0.1223,-0.116,-0.1165,-0.1167,-0.1346,-0.1349,-0.1352,0,0,0,0,0,0,-0.094,-0.0952,-0.1049,-0.1004,-0.1016,-0.1033,-0.1061,-0.1062,-0.108,-0.1102,-0.1105,-0.108,-0.1125,-0.1135,-0.1192,-0.1225,-0.1167,-0.1171,-0.1344,-0.1347,-0.135,-0.1387,0,0,0,0,0,0,-0.0936,-0.0951,-0.0976,-0.1005,-0.1019,-0.1099,-0.1063,-0.1065,-0.1087,-0.1084,-0.1117,-0.112,-0.1125,-0.1186,-0.1197,-0.123,-0.1174,-0.1341,-0.1345,-0.1349,-0.1383,-0.1391,-0.1398,0,0,0,0,0,-0.0931,-0.0985,-0.0978,-0.099,-0.1051,-0.11,-0.1108,-0.1112,-0.109,-0.1116,-0.113,-0.1119,-0.1219,-0.1192,-0.1204,-0.1239,-0.1339,-0.1344,-0.1349,-0.138,-0.1389,-0.1398,0,0,0,0,0,0,-0.0961,-0.0989,-0.0981,-0.1045,-0.107,-0.1097,-0.113,-0.1122,-0.1155,-0.1151,-0.1154,-0.1162,-0.1221,-0.1235,-0.1204,-0.1306,-0.1276,-0.1284,-0.1295,-0.1305,-0.1312,-0.1308,-0.1178,0,0,0,0,0,-0.0974,-0.1012,-0.1034,-0.1088,-0.1101,-0.1113,-0.1135,-0.1135,-0.1162,-0.1173,-0.1191,-0.1218,-0.1256,-0.1281,-0.1316,-0.1384,-0.1391,-0.1414,-0.1422,-0.1428,-0.1435,-0.1472,-0.1483,-0.1368,-0.1368,-0.1368,0,0,-0.1004,-0.1023,-0.1047,-0.1095,-0.1114,-0.1154,-0.1123,-0.1166,-0.1195,-0.118,-0.1235,-0.1249,-0.1279,-0.1342,-0.1371,-0.1356,-0.1468,-0.1434,-0.1439,-0.1443,-0.1479,-0.149,-0.1499,-0.1371,-0.1371,-0.137,0,0,-0.1077,-0.1095,-0.1143,-0.1163,-0.1192,-0.12,-0.1211,-0.1239,-0.1247,-0.1302,-0.1291,-0.1326,-0.1391,-0.1413,-0.1432,-0.1512,-0.1504,-0.1524,-0.1564,-0.16,-0.161,-0.1618,-0.1647,-0.1658,-0.153,-0.153,-0.153,0,-0.1111,-0.1168,-0.1169,-0.1212,-0.1234,-0.122,-0.1268,-0.1288,-0.1328,-0.1343,-0.1326,-0.1406,-0.1425,-0.1493,-0.1513,-0.1528,-0.1542,-0.1521,-0.1608,-0.1616,-0.1624,-0.1652,-0.1663,-0.1533,-0.1532,-0.1532,-0.1532,0,-0.1208,-0.1248,-0.1283,-0.1321,-0.1346,-0.1392,-0.1399,-0.1425,-0.1422,-0.1431,-0.1487,-0.151,-0.155,-0.1565,-0.1563,-0.1633,-0.1623,-0.1607,-0.1577,-0.1637,-0.1664,-0.1675,-0.1536,-0.1535,-0.1535,-0.1534,0,0,-0.1305,-0.1341,-0.1354,-0.1371,-0.1401,-0.1433,-0.1477,-0.1515,-0.1538,-0.1565,-0.1603,-0.1657,-0.1642,-0.1664,-0.1664,-0.1696,-0.1759,-0.1676,-0.1676,-0.1692,-0.1837,-0.1851,-0.1863,-0.1752,-0.1754,-0.1755,-0.1835,0,-0.1382,-0.1461,-0.1461,-0.1534,-0.1571,-0.1557,-0.1596,-0.162,-0.1629,-0.1663,-0.1673,-0.1711,-0.1688,-0.1701,-0.1731,-0.1745,-0.1788,-0.1738,-0.1789,-0.1791,-0.1784,-0.1877,-0.1892,-0.1966,-0.1845,-0.1847,-0.1848,0,-0.1484,-0.1513,-0.1589,-0.1614,-0.163,-0.1665,-0.1699,-0.1731,-0.1757,-0.1761,-0.1785,-0.178,-0.1826,-0.1793,-0.1857,-0.1823,-0.1843,-0.1852,-0.1855,-0.1862,-0.1825,-0.1888,-0.199,-0.2002,-0.1865,-0.1863,-0.1862,0,-0.1548,-0.1607,-0.166,-0.1675,-0.1705,-0.173,-0.1743,-0.1767,-0.179,-0.1819,-0.1834,-0.1869,-0.1889,-0.1917,-0.1921,-0.1896,-0.1986,-0.1952,-0.1992,-0.1992,-0.2014,-0.2013,-0.2122,-0.2023,-0.2023,-0.2023,-0.2022,0,-0.1636,-0.1684,-0.169,-0.1723,-0.1775,-0.1775,-0.1827,-0.1839,-0.1859,-0.1895,-0.1884,-0.1918,-0.1921,-0.1955,-0.1959,-0.2012,-0.2021,-0.2026,-0.2027,-0.2028,-0.2028,-0.2043,-0.2039,-0.2026,-0.2025,-0.2024,-0.2024,0,-0.1719,-0.1724,-0.1781,-0.1804,-0.1811,-0.1849,-0.1868,-0.19,-0.1907,-0.1952,-0.1962,-0.1974,-0.2014,-0.202,-0.2068,-0.207,-0.2133,-0.2128,-0.2125,-0.2125,-0.2164,-0.2161,-0.2289,-0.2306,-0.2195,-0.2196,-0.2197,0,-0.1775,-0.1811,-0.1837,-0.186,-0.1874,-0.1911,-0.1933,-0.1933,-0.1957,-0.1989,-0.2017,-0.2055,-0.2086,-0.215,-0.2164,-0.2199,-0.2196,-0.2238,-0.2201,-0.2201,-0.2198,-0.2197,-0.2201,-0.2246,-0.2247,-0.2248,-0.2249,0,-0.1876,-0.1876,-0.1909,-0.1942,-0.1969,-0.1996,-0.2021,-0.204,-0.2043,-0.2071,-0.2111,-0.2135,-0.2182,-0.222,-0.2255,-0.227,-0.2261,-0.226,-0.2271,-0.2274,-0.2271,-0.2275,-0.2146,-0.2258,-0.2257,-0.2256,-0.2256,-0.2255,-0.1948,-0.198,-0.2003,-0.2039,-0.2057,-0.2081,-0.2111,-0.2122,-0.2155,-0.2193,-0.2191,-0.2235,-0.2259,-0.2305,-0.2321,-0.2356,-0.2343,-0.2359,-0.2363,-0.2368,-0.2372,-0.2264,-0.2362,-0.2362,-0.2362,-0.2362,-0.2362,0,-0.205,-0.2063,-0.2097,-0.2131,-0.216,-0.2146,-0.2173,-0.2198,-0.2237,-0.2259,-0.229,-0.2335,-0.2372,-0.2387,-0.2424,-0.2449,-0.2445,-0.2458,-0.2458,-0.2461,-0.2382,-0.2369,-0.246,-0.246,-0.246,-0.246,-0.246,-0.246,-0.2106,-0.2159,-0.2162,-0.2223,-0.2236,-0.2279,-0.2295,-0.2317,-0.2335,-0.2386,-0.2416,-0.2425,-0.2445,-0.2482,-0.2516,-0.2519,-0.2534,-0.2549,-0.2551,-0.2477,-0.2467,-0.2457,-0.2446,-0.2552,-0.2552,-0.2628,-0.2628,-0.2629]},{"header":{"parameterUnit":"m.s-1","parameterCategory":1,"la1":30.2991,"la2":30.254,"lo1":-89.0895,"lo2":-89.0444,"dy":0.0017,"dx":0.0017,"nx":28,"ny":28,"refTime":"2025-01-07T09:00:00:Z","depth":0,"parameterNumber":3,"parameterNumberName":"V-component_of_WINDS"},"data":[0,0,0,0,0,0,0,0,0,0,0,0,0,0,0,0,0,0,0,0,0,0,0,0,0,0,0,0,0,0,0,0,0,0,0,0,0,0,0,0,0,0,0,0,0,0,0,0,0,0,0,0,0,0,0,0,0,0,-5.86,-5.8602,0,-5.874,-5.8741,-5.8743,-5.8661,-5.8657,-5.8653,-5.865,-5.8787,-5.8794,-5.8801,0,0,0,0,0,0,0,0,0,0,0,0,0,-5.8258,-5.8264,-5.86,-5.8602,-5.8604,-5.874,-5.8741,-5.8743,-5.8662,-5.8657,-5.8652,-5.8648,-5.8784,-5.8793,-5.8802,0,0,0,0,0,0,0,0,0,0,0,0,0,-5.8403,-5.8267,-5.86,-5.858,-5.8579,-5.8739,-5.8741,-5.8744,-5.8663,-5.8657,-5.8651,-5.8645,-5.8782,-5.8792,-5.8803,-5.8989,0,0,-5.8837,-5.8842,0,0,0,0,0,0,0,0,-5.8395,-5.8415,-5.8581,-5.8581,-5.8581,-5.8677,-5.8671,-5.8826,-5.8664,-5.8631,-5.8649,-5.8643,-5.8755,-5.8768,-5.8807,-5.8996,-5.9002,-5.8838,-5.8844,-5.8849,-5.8852,0,0,0,0,0,0,0,-5.8385,-5.8409,-5.8655,-5.8583,-5.8583,-5.8562,-5.8576,-5.87,-5.8724,-5.8633,-5.8628,-5.8646,-5.8754,-5.8796,-5.8809,-5.9004,-5.8837,-5.8847,-5.8854,-5.8858,-5.9352,-5.9358,0,0,0,0,0,0,-5.8377,-5.8401,-5.8651,-5.8659,-5.8472,-5.8573,-5.8588,-5.8652,-5.8723,-5.8728,-5.8651,-5.8641,-5.878,-5.8796,-5.8814,-5.9036,-5.8849,-5.8859,-5.8866,-5.9345,-5.9353,-5.936,0,0,0,0,0,0,-5.837,-5.84,-5.8645,-5.8529,-5.8558,-5.8585,-5.8657,-5.8658,-5.87,-5.8736,-5.8739,-5.869,-5.8776,-5.8798,-5.8947,-5.904,-5.8864,-5.8874,-5.9338,-5.9348,-5.9357,-5.9483,0,0,0,0,0,0,-5.836,-5.8398,-5.847,-5.8531,-5.8565,-5.8778,-5.8663,-5.8665,-5.872,-5.871,-5.8774,-5.8778,-5.8773,-5.8931,-5.8958,-5.9052,-5.8883,-5.9329,-5.9342,-5.9353,-5.9471,-5.9496,-5.9517,0,0,0,0,0,-5.8348,-5.8499,-5.8474,-5.8505,-5.8656,-5.8783,-5.8802,-5.8795,-5.8728,-5.88,-5.8823,-5.8776,-5.9025,-5.8946,-5.8976,-5.9075,-5.9323,-5.9338,-5.9353,-5.946,-5.9491,-5.9517,0,0,0,0,0,0,-5.8447,-5.8507,-5.848,-5.8655,-5.8715,-5.8769,-5.886,-5.8828,-5.8907,-5.8893,-5.8879,-5.8894,-5.9049,-5.9076,-5.8988,-5.9258,-5.9163,-5.9185,-5.9235,-5.9265,-5.9288,-5.9278,-5.8892,0,0,0,0,0,-5.8489,-5.8589,-5.8635,-5.8786,-5.8817,-5.8834,-5.8889,-5.8878,-5.8939,-5.8963,-5.8996,-5.9055,-5.9146,-5.9207,-5.9293,-5.9474,-5.9486,-5.9556,-5.958,-5.9599,-5.9617,-5.9714,-5.9746,-5.9408,-5.9408,-5.9408,0,0,-5.8577,-5.8623,-5.8686,-5.8807,-5.8852,-5.8954,-5.8856,-5.8968,-5.9043,-5.8979,-5.9122,-5.9149,-5.9213,-5.9379,-5.9453,-5.9407,-5.9713,-5.9618,-5.9633,-5.9641,-5.9733,-5.9765,-5.9793,-5.9418,-5.9416,-5.9415,0,0,-5.879,-5.8835,-5.8965,-5.9013,-5.9083,-5.9093,-5.9124,-5.9184,-5.9199,-5.9343,-5.9297,-5.9385,-5.9543,-5.9591,-5.9636,-5.9867,-5.9827,-5.9895,-6.0017,-6.0112,-6.0139,-6.0162,-6.0244,-6.0274,-5.9913,-5.9913,-5.9914,0,-5.8891,-5.9045,-5.9036,-5.9152,-5.9206,-5.9155,-5.9285,-5.9331,-5.9425,-5.9462,-5.9409,-5.9606,-5.9646,-5.9822,-5.9878,-5.9917,-5.9951,-5.9888,-6.0136,-6.016,-6.0181,-6.0259,-6.029,-5.9921,-5.992,-5.992,-5.9919,0,-5.9165,-5.9272,-5.9368,-5.9463,-5.9527,-5.965,-5.9657,-5.9723,-5.9707,-5.9722,-5.9868,-5.9914,-6.0008,-6.0049,-6.0033,-6.0223,-6.0191,-6.0138,-6.0042,-6.0222,-6.0295,-6.0324,-5.9933,-5.993,-5.9927,-5.9925,0,0,-5.9444,-5.9532,-5.9567,-5.9609,-5.9683,-5.9765,-5.9884,-5.9978,-6.0035,-6.0101,-6.02,-6.0335,-6.0286,-6.0337,-6.0326,-6.0409,-6.0589,-6.0345,-6.0346,-6.0388,-6.0799,-6.084,-6.0875,-6.0562,-6.0568,-6.0572,-6.0794,0,-5.9662,-5.9874,-5.9868,-6.0064,-6.0163,-6.0115,-6.0219,-6.0275,-6.0292,-6.0376,-6.0394,-6.049,-6.0417,-6.0448,-6.0528,-6.055,-6.0671,-6.0534,-6.0653,-6.0657,-6.0639,-6.0913,-6.0956,-6.1163,-6.0822,-6.0827,-6.0831,0,-5.9944,-6.0022,-6.0229,-6.0287,-6.0328,-6.0422,-6.0508,-6.059,-6.0651,-6.0657,-6.0715,-6.069,-6.081,-6.0711,-6.0874,-6.0781,-6.0829,-6.0847,-6.0855,-6.0866,-6.0755,-6.0931,-6.1229,-6.126,-6.0876,-6.0872,-6.0869,0,-6.0128,-6.0283,-6.0427,-6.0464,-6.0536,-6.0604,-6.0636,-6.0692,-6.0748,-6.0822,-6.0859,-6.0945,-6.0992,-6.1058,-6.1057,-6.0985,-6.1223,-6.1124,-6.123,-6.1231,-6.1283,-6.1279,-6.1592,-6.1314,-6.1313,-6.1313,-6.1312,0,-6.0371,-6.05,-6.0511,-6.0599,-6.074,-6.0732,-6.0872,-6.0898,-6.0947,-6.1038,-6.1001,-6.1087,-6.1081,-6.1167,-6.1166,-6.1301,-6.1323,-6.133,-6.1329,-6.1334,-6.1333,-6.1365,-6.1351,-6.1321,-6.1319,-6.1318,-6.1316,0,-6.06,-6.0613,-6.0766,-6.0822,-6.0839,-6.0941,-6.0988,-6.1071,-6.1085,-6.1201,-6.1227,-6.1248,-6.1348,-6.1353,-6.1467,-6.1467,-6.1631,-6.1613,-6.1612,-6.1608,-6.1715,-6.1705,-6.2059,-6.2105,-6.1797,-6.18,-6.1802,0,-6.0755,-6.0853,-6.092,-6.0979,-6.1017,-6.1113,-6.1171,-6.1166,-6.1227,-6.1304,-6.1378,-6.1474,-6.1551,-6.1712,-6.1736,-6.1823,-6.1807,-6.1925,-6.182,-6.1822,-6.1809,-6.1803,-6.1812,-6.1946,-6.1949,-6.1952,-6.1954,0,-6.1029,-6.103,-6.1117,-6.1206,-6.1277,-6.1346,-6.141,-6.146,-6.1463,-6.1533,-6.1636,-6.1696,-6.1813,-6.1909,-6.1994,-6.2024,-6.199,-6.1987,-6.2017,-6.2023,-6.2018,-6.2022,-6.1668,-6.1979,-6.1977,-6.1975,-6.1974,-6.1973,-6.1226,-6.131,-6.1371,-6.1468,-6.1516,-6.1577,-6.1658,-6.1682,-6.1769,-6.1865,-6.1856,-6.197,-6.2026,-6.2137,-6.2175,-6.2262,-6.2221,-6.2264,-6.2275,-6.2285,-6.2297,-6.2004,-6.2277,-6.2277,-6.2276,-6.2275,-6.2275,0,-6.1497,-6.1534,-6.1624,-6.1716,-6.1792,-6.1754,-6.1823,-6.1889,-6.199,-6.2047,-6.2124,-6.2241,-6.2334,-6.2365,-6.2455,-6.2518,-6.2505,-6.2542,-6.2537,-6.2545,-6.2328,-6.2294,-6.2552,-6.2552,-6.2552,-6.2552,-6.2551,-6.2551,-6.1648,-6.1789,-6.1798,-6.1962,-6.1996,-6.2109,-6.2152,-6.2207,-6.2253,-6.2386,-6.2464,-6.2484,-6.2531,-6.2623,-6.2706,-6.2712,-6.2747,-6.2791,-6.2791,-6.2588,-6.256,-6.2534,-6.2501,-6.2799,-6.2799,-6.3001,-6.3002,-6.3004]}]]